Showing default

JINJUSAT-1B, 63210

Orbit data source: Space-Track

JINJUSAT-1B, 63210 is a South Korean payload satellite in SSO that was launched on Sat, 15 Mar 2025 UTC via an FALCON 9 launch vehicle from the Air Force Western Test Range (AFWTR). Payload-class satellites include a variety of spacecraft equipped with specific instruments for various scientific and technological missions. These include communications satellites like Starlink; space stations such as the ISS; scientific satellites like the Hubble; Earth observation satellites from companies like Planet Labs, Umbra, and HawkEye 360; GPS; miniature CubeSats for education and research; and military/defense satellites.

Loading next visibility...
Identifier
63210, 2025-052A
Orbit
SSO
Country
Flag of KRKR / SKOR
Related business
Manufacturer
KTL
Mission
Operational Civil Imaging
Bus & Motor
CUBESAT 2U, Unknown motor
Mass
2 kg wet, 2 kg dry
Launch date (UTC)
2025-03-15 (2 years ago)
Launch vehicle
FALCON 9
Launch site
Air Force Western Test Range (AFWTR)
Object type
Payload
Rocket body
Debris
Shape & HBR
Box, 0.1 m
Radar Cross Section
0.025 m², Medium (>0.1 m² and < 1m²)

Expand to show TLE details & history
Last TLE update: 1 day ago

TLE from 1 day ago
0 JINJUSAT-1B
1 63210U 25052A   26264.69606325  .00011866  00000-0  33776-3 0  9994
2 63210  97.3861 161.7026 0005267  94.7775 265.4070 15.36257753 84909
Epoch: 2026-09-21T16:42Z
TLE epoch observation values (Epoch: 2026-09-21T16:42:19.864Z)
Latitude
-0.0001°
Longitude
-89.45234°
Altitude
460.59 km
Speed
7.636 km/s
True Right ascension
10h 46m 48s
True Declination
0° 00' 00"
Sunlit
Object was in daylight at epoch
Visualization orbit readout
Latitude
Unknown
Longitude
Unknown
Altitude
Unknown
Speed
Unknown
Apparent Right ascension
Unknown
Apparent Declination
Unknown
Sunlit
N/A
Visualization observer readout
Local Sidereal Time
17:13:35
Azimuth
Unknown
Elevation
Unknown
Doppler factor
Unknown
Orbital elements
Apogee altitude
457.729 km
Perigee altitude
450.532 km
Semi-major axis
6,832.268 km
Eccentricity
0.00053
Inclination
97.3861°
RAAN
161.7026°
Arg. of periapsis
94.7775°
True anomaly
265.34684°
Mean anomaly
265.407°
Eccentric anomaly
265.37692°
Mean motion
3.84323 °/min
Orbital period
93.67 mins
BSTAR
0.00033776
Loading maneuver chart data...
Computing Atmospheric mass density...
Loading historical data...
Loading historical data...
Loading historical data...
Loading historical data...
Loading historical data...
Loading historical data...
Loading historical data...

Documentation

Showing up to 5 results
|